sat.trackr.live / text

‹ back to catalog

INTELSAT 14 (IS-14)

NORAD 36097 · 2009-064A

PAYLOAD ACTIVE UNKNOWN

§ Identity

Operator
Country
ITSO
Launch date
2009-11-23
Launch site
AFETR
Launch vehicle
Mass (kg)
RCS (m²)
25.90

Purposes: comms

External: N2YO · Heavens-Above · Gunter

§ Orbital elements

Epoch: 2026-09-19T23:35:58.182720Z

Period
1,436.09 min
Inclination
0.1527°
Eccentricity
0.0002432
Mean motion
1.00272077 rev/d
Perigee alt
35,776.3 km
Apogee alt
35,796.8 km
Semi-major
42,164.7 km
B*
0.0000e+0
RAAN
84.3483°
Arg perigee
91.4015°
Mean anomaly
132.1398°
Rev number
6,155

§ Raw data

INTELSAT 14 (IS-14)1 36097U 09064A   26262.98331230 -.00000278  00000+0  00000+0 0  99972 36097   0.1527  84.3483 0002432  91.4015 132.1398  1.00272077 61553

JSON: /api/v1/satellites/36097 · /tle

For live sub-satellite position, see the globe view (requires WebGL).

§ Visibility from observer

Set your observer location to see the next 7 days of passes ≥ 10°. The values pass through the URL so the page stays shareable.

No JS? Fill the form by hand. The geolocation button needs JavaScript.